{"data":{"norad_id":63215,"epoch":"2026-09-18T12:13:20.396640Z","epoch_age_seconds":187095,"freshness":"STALE","line1":"1 63215U 25052F   26261.50926385  .00014679  00000+0  40221-3 0  9994","line2":"2 63215  97.3757 158.0953 0004217 114.8567 245.3116 15.37399635 84436","mean_motion":15.37399635,"eccentricity":0.0004217,"inclination_deg":97.3757,"raan_deg":158.0953,"arg_perigee_deg":114.8567,"mean_anomaly_deg":245.3116,"bstar":0.00040221,"rev_number":8443,"period_min":93.664650831012,"perigee_km":450.92116323754,"apogee_km":456.68322075206,"semimajor_km":6831.9391919948,"source":"CELESTRAK","updated_at":"2026-09-20T09:00:45.243116Z"}}